TimeEDT,TemperatureF,Dew PointF,Humidity,Sea Level PressureIn,VisibilityMPH,Wind Direction,Wind SpeedMPH,Gust SpeedMPH,PrecipitationIn,Events,Conditions,WindDirDegrees,DateUTC
12:15 AM,55.4,53.6,94,30.11,5.0,Calm,Calm,-,N/A,,Clear,0,2013-09-24 04:15:00
12:35 AM,55.4,55.4,100,30.12,4.0,Calm,Calm,-,N/A,,Scattered Clouds,0,2013-09-24 04:35:00
12:55 AM,55.4,53.6,94,30.11,4.0,Calm,Calm,-,N/A,,Mostly Cloudy,0,2013-09-24 04:55:00
1:15 AM,55.4,53.6,94,30.11,4.0,Calm,Calm,-,N/A,,Overcast,0,2013-09-24 05:15:00
1:35 AM,55.4,53.6,94,30.11,4.0,Calm,Calm,-,N/A,,Overcast,0,2013-09-24 05:35:00
1:55 AM,55.4,55.4,100,30.11,5.0,Calm,Calm,-,N/A,,Overcast,0,2013-09-24 05:55:00
2:15 AM,55.4,55.4,100,30.11,5.0,Calm,Calm,-,N/A,,Overcast,0,2013-09-24 06:15:00
2:35 AM,55.4,55.4,100,30.11,5.0,Calm,Calm,-,N/A,,Overcast,0,2013-09-24 06:35:00
2:55 AM,57.2,55.4,94,30.11,7.0,Calm,Calm,-,N/A,,Mostly Cloudy,0,2013-09-24 06:55:00
3:15 AM,57.2,55.4,94,30.11,7.0,Calm,Calm,-,N/A,,Overcast,0,2013-09-24 07:15:00
3:55 AM,57.2,55.4,94,30.11,10.0,Calm,Calm,-,N/A,,Overcast,0,2013-09-24 07:55:00
4:15 AM,57.2,55.4,94,30.11,10.0,Calm,Calm,-,N/A,,Overcast,0,2013-09-24 08:15:00
4:55 AM,59.0,55.4,88,30.11,10.0,Calm,Calm,-,N/A,,Overcast,0,2013-09-24 08:55:00
5:15 AM,59.0,55.4,88,30.11,10.0,Calm,Calm,-,N/A,,Overcast,0,2013-09-24 09:15:00
5:35 AM,59.0,55.4,88,30.11,10.0,Calm,Calm,-,N/A,,Overcast,0,2013-09-24 09:35:00
5:55 AM,59.0,55.4,88,30.11,10.0,Calm,Calm,-,N/A,,Overcast,0,2013-09-24 09:55:00
6:15 AM,59.0,55.4,88,30.12,10.0,Calm,Calm,-,N/A,,Overcast,0,2013-09-24 10:15:00
6:35 AM,59.0,55.4,88,30.12,10.0,Calm,Calm,-,N/A,,Overcast,0,2013-09-24 10:35:00
6:55 AM,59.0,55.4,88,30.12,10.0,Calm,Calm,-,N/A,,Overcast,0,2013-09-24 10:55:00
7:15 AM,59.0,55.4,88,30.13,10.0,Calm,Calm,-,N/A,,Overcast,0,2013-09-24 11:15:00
7:35 AM,59.0,55.4,88,30.13,10.0,Calm,Calm,-,N/A,,Overcast,0,2013-09-24 11:35:00
7:55 AM,60.8,57.2,88,30.14,10.0,Calm,Calm,-,N/A,,Overcast,0,2013-09-24 11:55:00
8:55 AM,62.6,57.2,82,30.14,10.0,Calm,Calm,-,N/A,,Mostly Cloudy,0,2013-09-24 12:55:00
9:55 AM,66.2,55.4,68,30.14,10.0,Calm,Calm,-,N/A,,Clear,0,2013-09-24 13:55:00
10:55 AM,69.8,55.4,60,30.13,10.0,Calm,Calm,-,N/A,,Clear,0,2013-09-24 14:55:00
11:55 AM,71.6,55.4,57,30.12,10.0,SE,3.5,-,N/A,,Scattered Clouds,130,2013-09-24 15:55:00
12:55 PM,75.2,55.4,50,30.09,10.0,SW,4.6,-,N/A,,Scattered Clouds,230,2013-09-24 16:55:00
1:55 PM,73.4,55.4,53,30.07,10.0,SE,4.6,-,N/A,,Mostly Cloudy,130,2013-09-24 17:55:00
2:55 PM,77.0,53.6,44,30.04,10.0,Calm,Calm,-,N/A,,Mostly Cloudy,0,2013-09-24 18:55:00
3:55 PM,78.8,53.6,42,30.02,10.0,Calm,Calm,-,N/A,,Mostly Cloudy,0,2013-09-24 19:55:00
4:52 PM,75.2,55.4,50,30.01,10.0,Calm,Calm,-,N/A,,Mostly Cloudy,0,2013-09-24 20:52:00
5:55 PM,73.4,55.4,53,30.00,10.0,Calm,Calm,-,N/A,,Clear,0,2013-09-24 21:55:00
6:55 PM,69.8,60.8,73,29.99,10.0,Calm,Calm,-,N/A,,Partly Cloudy,0,2013-09-24 22:55:00
8:55 PM,64.4,59.0,83,30.00,10.0,Calm,Calm,-,N/A,,Scattered Clouds,0,2013-09-25 00:55:00
9:15 PM,62.6,59.0,88,30.00,10.0,Calm,Calm,-,N/A,,Clear,0,2013-09-25 01:15:00
9:35 PM,60.8,57.2,88,30.00,10.0,Calm,Calm,-,N/A,,Clear,0,2013-09-25 01:35:00
9:55 PM,60.8,57.2,88,30.00,10.0,Calm,Calm,-,N/A,,Scattered Clouds,0,2013-09-25 01:55:00
10:15 PM,59.0,55.4,88,30.00,10.0,Calm,Calm,-,N/A,,Scattered Clouds,0,2013-09-25 02:15:00
10:35 PM,59.0,57.2,94,30.00,10.0,Calm,Calm,-,N/A,,Scattered Clouds,0,2013-09-25 02:35:00
10:55 PM,60.8,59.0,94,30.00,10.0,Calm,Calm,-,N/A,,Mostly Cloudy,0,2013-09-25 02:55:00
11:15 PM,59.0,57.2,94,30.00,10.0,Calm,Calm,-,N/A,,Mostly Cloudy,0,2013-09-25 03:15:00
11:35 PM,59.0,57.2,94,30.00,10.0,Calm,Calm,-,N/A,,Scattered Clouds,0,2013-09-25 03:35:00
11:55 PM,59.0,57.2,94,30.00,7.0,Calm,Calm,-,N/A,,Scattered Clouds,0,2013-09-25 03:55:00